Year,Month,Day,Hour,Minute,Value (Times are PST for temperature in C)
2019,10,27,00,00,1.70
2019,10,27,00,01,1.70
2019,10,27,00,02,1.70
2019,10,27,00,03,1.60
2019,10,27,00,04,1.60
2019,10,27,00,05,1.60
2019,10,27,00,06,1.60
2019,10,27,00,07,1.60
2019,10,27,00,08,1.50
2019,10,27,00,09,1.50
2019,10,27,00,10,1.40
2019,10,27,00,11,1.40
2019,10,27,00,12,1.40
2019,10,27,00,13,1.40
2019,10,27,00,14,1.30
2019,10,27,00,15,1.30
2019,10,27,00,16,1.30
2019,10,27,00,17,1.30
2019,10,27,00,18,1.30
2019,10,27,00,19,1.30
2019,10,27,00,20,1.30
2019,10,27,00,21,1.30
2019,10,27,00,22,1.30
2019,10,27,00,23,1.30
2019,10,27,00,24,1.30
2019,10,27,00,25,1.30
2019,10,27,00,26,1.30
2019,10,27,00,27,1.30
2019,10,27,00,28,1.30
2019,10,27,00,29,1.30
2019,10,27,00,30,1.30
2019,10,27,00,31,1.30
2019,10,27,00,32,1.30
2019,10,27,00,33,1.20
2019,10,27,00,34,1.20
2019,10,27,00,35,1.20
2019,10,27,00,36,1.10
2019,10,27,00,37,1.10
2019,10,27,00,38,1.10
2019,10,27,00,39,1.10
2019,10,27,00,40,1.10
2019,10,27,00,41,1.10
2019,10,27,00,42,1.10
2019,10,27,00,43,1.10
2019,10,27,00,44,1.10
2019,10,27,00,45,1.10
2019,10,27,00,46,1.00
2019,10,27,00,47,1.00
2019,10,27,00,48,1.00
2019,10,27,00,49,1.00
2019,10,27,00,50,0.90
2019,10,27,00,51,0.90
2019,10,27,00,52,0.90
2019,10,27,00,53,0.80
2019,10,27,00,54,0.80
2019,10,27,00,55,0.80
2019,10,27,00,56,0.80
2019,10,27,00,57,0.80
2019,10,27,00,58,0.80
2019,10,27,00,59,0.80
2019,10,27,01,00,0.70
2019,10,27,01,01,0.70
2019,10,27,01,02,0.70
2019,10,27,01,03,0.70
2019,10,27,01,04,0.70
2019,10,27,01,05,0.70
2019,10,27,01,06,0.70
2019,10,27,01,07,0.70
2019,10,27,01,08,0.70
2019,10,27,01,09,0.60
2019,10,27,01,10,0.60
2019,10,27,01,11,0.60
2019,10,27,01,12,0.60
2019,10,27,01,13,0.60
2019,10,27,01,14,0.60
2019,10,27,01,15,0.60
2019,10,27,01,16,0.60
2019,10,27,01,17,0.60
2019,10,27,01,18,0.60
2019,10,27,01,19,0.50
2019,10,27,01,20,0.50
2019,10,27,01,21,0.50
2019,10,27,01,22,0.50
2019,10,27,01,23,0.50
2019,10,27,01,24,0.50
2019,10,27,01,25,0.40
2019,10,27,01,26,0.40
2019,10,27,01,27,0.50
2019,10,27,01,28,0.40
2019,10,27,01,29,0.40
2019,10,27,01,30,0.40
2019,10,27,01,31,0.40
2019,10,27,01,32,0.40
2019,10,27,01,33,0.30
2019,10,27,01,34,0.30
2019,10,27,01,35,0.30
2019,10,27,01,36,0.30
2019,10,27,01,37,0.30
2019,10,27,01,38,0.30
2019,10,27,01,39,0.30
2019,10,27,01,40,0.20
2019,10,27,01,41,0.20
2019,10,27,01,42,0.20
2019,10,27,01,43,0.20
2019,10,27,01,44,0.20
2019,10,27,01,45,0.20
2019,10,27,01,46,0.20
2019,10,27,01,47,0.20
2019,10,27,01,48,0.20
2019,10,27,01,49,0.20
2019,10,27,01,50,0.20
2019,10,27,01,51,0.20
2019,10,27,01,52,0.20
2019,10,27,01,53,0.10
2019,10,27,01,54,0.10
2019,10,27,01,55,0.10
2019,10,27,01,56,0.10
2019,10,27,01,57,0.10
2019,10,27,01,58,0.10
2019,10,27,01,59,0.00
2019,10,27,02,00,0.00
2019,10,27,02,01,0.00
2019,10,27,02,02,0.00
2019,10,27,02,03,0.00
2019,10,27,02,04,-0.10
2019,10,27,02,05,-0.10
2019,10,27,02,06,-0.10
2019,10,27,02,07,-0.10
2019,10,27,02,08,-0.10
2019,10,27,02,09,-0.10
2019,10,27,02,10,-0.10
2019,10,27,02,11,-0.10
2019,10,27,02,12,-0.10
2019,10,27,02,13,-0.10
2019,10,27,02,14,-0.10
2019,10,27,02,15,-0.10
2019,10,27,02,16,-0.10
2019,10,27,02,17,-0.10
2019,10,27,02,18,-0.10
2019,10,27,02,19,-0.10
2019,10,27,02,20,-0.10
2019,10,27,02,21,-0.10
2019,10,27,02,22,-0.10
2019,10,27,02,23,-0.10
2019,10,27,02,24,-0.10
2019,10,27,02,25,-0.10
2019,10,27,02,26,-0.10
2019,10,27,02,27,-0.20
2019,10,27,02,28,-0.20
2019,10,27,02,29,-0.20
2019,10,27,02,30,-0.20
2019,10,27,02,31,-0.20
2019,10,27,02,32,-0.20
2019,10,27,02,33,-0.20
2019,10,27,02,34,-0.20
2019,10,27,02,35,-0.20
2019,10,27,02,36,-0.30
2019,10,27,02,37,-0.30
2019,10,27,02,38,-0.30
2019,10,27,02,39,-0.30
2019,10,27,02,40,-0.30
2019,10,27,02,41,-0.30
2019,10,27,02,42,-0.30
2019,10,27,02,43,-0.30
2019,10,27,02,44,-0.30
2019,10,27,02,45,-0.30
2019,10,27,02,46,-0.30
2019,10,27,02,47,-0.30
2019,10,27,02,48,-0.30
2019,10,27,02,49,-0.30
2019,10,27,02,50,-0.30
2019,10,27,02,51,-0.30
2019,10,27,02,52,-0.40
2019,10,27,02,53,-0.40
2019,10,27,02,54,-0.40
2019,10,27,02,55,-0.40
2019,10,27,02,56,-0.50
2019,10,27,02,57,-0.50
2019,10,27,02,58,-0.40
2019,10,27,02,59,-0.50
2019,10,27,03,00,-0.50
2019,10,27,03,01,-0.50
2019,10,27,03,02,-0.40
2019,10,27,03,03,-0.40
2019,10,27,03,04,-0.40
2019,10,27,03,05,-0.40
2019,10,27,03,06,-0.40
2019,10,27,03,07,-0.40
2019,10,27,03,08,-0.40
2019,10,27,03,09,-0.40
2019,10,27,03,10,-0.40
2019,10,27,03,11,-0.40
2019,10,27,03,12,-0.40
2019,10,27,03,13,-0.40
2019,10,27,03,14,-0.40
2019,10,27,03,15,-0.40
2019,10,27,03,16,-0.50
2019,10,27,03,17,-0.50
2019,10,27,03,18,-0.50
2019,10,27,03,19,-0.50
2019,10,27,03,20,-0.50
2019,10,27,03,21,-0.50
2019,10,27,03,22,-0.50
2019,10,27,03,23,-0.50
2019,10,27,03,24,-0.50
2019,10,27,03,25,-0.50
2019,10,27,03,26,-0.50
2019,10,27,03,27,-0.50
2019,10,27,03,28,-0.60
2019,10,27,03,29,-0.60
2019,10,27,03,30,-0.60
2019,10,27,03,31,-0.60
2019,10,27,03,32,-0.60
2019,10,27,03,33,-0.60
2019,10,27,03,34,-0.60
2019,10,27,03,35,-0.60
2019,10,27,03,36,-0.70
2019,10,27,03,37,-0.70
2019,10,27,03,38,-0.70
2019,10,27,03,39,-0.60
2019,10,27,03,40,-0.60
2019,10,27,03,41,-0.60
2019,10,27,03,42,-0.60
2019,10,27,03,43,-0.60
2019,10,27,03,44,-0.60
2019,10,27,03,45,-0.50
2019,10,27,03,46,-0.50
2019,10,27,03,47,-0.50
2019,10,27,03,48,-0.50
2019,10,27,03,49,-0.50
2019,10,27,03,50,-0.60
2019,10,27,03,51,-0.60
2019,10,27,03,52,-0.60
2019,10,27,03,53,-0.60
2019,10,27,03,54,-0.60
2019,10,27,03,55,-0.60
2019,10,27,03,56,-0.50
2019,10,27,03,57,-0.50
2019,10,27,03,58,-0.50
2019,10,27,03,59,-0.50
2019,10,27,04,00,-0.60
2019,10,27,04,01,-0.60
2019,10,27,04,02,-0.60
2019,10,27,04,03,-0.60
2019,10,27,04,04,-0.60
2019,10,27,04,05,-0.60
2019,10,27,04,06,-0.60
2019,10,27,04,07,-0.70
2019,10,27,04,08,-0.70
2019,10,27,04,09,-0.70
2019,10,27,04,10,-0.70
2019,10,27,04,11,-0.80
2019,10,27,04,12,-0.80
2019,10,27,04,13,-0.80
2019,10,27,04,14,-0.80
2019,10,27,04,15,-0.80
2019,10,27,04,16,-0.80
2019,10,27,04,17,-0.80
2019,10,27,04,18,-0.80
2019,10,27,04,19,-0.90
2019,10,27,04,20,-0.90
2019,10,27,04,21,-0.90
2019,10,27,04,22,-0.90
2019,10,27,04,23,-0.90
2019,10,27,04,24,-0.90
2019,10,27,04,25,-0.90
2019,10,27,04,26,-0.90
2019,10,27,04,27,-0.90
2019,10,27,04,28,-0.90
2019,10,27,04,29,-0.90
2019,10,27,04,30,-0.90
2019,10,27,04,31,-0.90
2019,10,27,04,32,-1.00
2019,10,27,04,33,-1.00
2019,10,27,04,34,-1.00
2019,10,27,04,35,-1.00
2019,10,27,04,36,-1.00
2019,10,27,04,37,-1.00
2019,10,27,04,38,-1.00
2019,10,27,04,39,-1.00
2019,10,27,04,40,-1.00
2019,10,27,04,41,-1.00
2019,10,27,04,42,-1.00
2019,10,27,04,43,-1.00
2019,10,27,04,44,-1.00
2019,10,27,04,45,-1.00
2019,10,27,04,46,-0.90
2019,10,27,04,47,-0.90
2019,10,27,04,48,-0.90
2019,10,27,04,49,-0.90
2019,10,27,04,50,-0.90
2019,10,27,04,51,-0.80
2019,10,27,04,52,-0.80
2019,10,27,04,53,-0.80
2019,10,27,04,54,-0.70
2019,10,27,04,55,-0.70
2019,10,27,04,56,-0.70
2019,10,27,04,57,-0.70
2019,10,27,04,58,-0.70
2019,10,27,04,59,-0.70
2019,10,27,05,00,-0.70
2019,10,27,05,01,-0.70
2019,10,27,05,02,-0.70
2019,10,27,05,03,-0.70
2019,10,27,05,04,-0.70
2019,10,27,05,05,-0.80
2019,10,27,05,06,-0.80
2019,10,27,05,07,-0.80
2019,10,27,05,08,-0.80
2019,10,27,05,09,-0.80
2019,10,27,05,10,-0.80
2019,10,27,05,11,-0.80
2019,10,27,05,12,-0.80
2019,10,27,05,13,-0.90
2019,10,27,05,14,-0.90
2019,10,27,05,15,-1.00
2019,10,27,05,16,-1.00
2019,10,27,05,17,-1.00
2019,10,27,05,18,-1.00
2019,10,27,05,19,-1.00
2019,10,27,05,20,-1.10
2019,10,27,05,21,-1.10
2019,10,27,05,22,-1.10
2019,10,27,05,23,-1.10
2019,10,27,05,24,-1.10
2019,10,27,05,25,-1.10
2019,10,27,05,26,-1.20
2019,10,27,05,27,-1.20
2019,10,27,05,28,-1.20
2019,10,27,05,29,-1.20
2019,10,27,05,30,-1.20
2019,10,27,05,31,-1.20
2019,10,27,05,32,-1.30
2019,10,27,05,33,-1.30
2019,10,27,05,34,-1.30
2019,10,27,05,35,-1.30
2019,10,27,05,36,-1.30
2019,10,27,05,37,-1.30
2019,10,27,05,38,-1.30
2019,10,27,05,39,-1.40
2019,10,27,05,40,-1.40
2019,10,27,05,41,-1.40
2019,10,27,05,42,-1.40
2019,10,27,05,43,-1.40
2019,10,27,05,44,-1.40
2019,10,27,05,45,-1.40
2019,10,27,05,46,-1.40
2019,10,27,05,47,-1.40
2019,10,27,05,48,-1.50
2019,10,27,05,49,-1.50
2019,10,27,05,50,-1.50
2019,10,27,05,51,-1.50
2019,10,27,05,52,-1.50
2019,10,27,05,53,-1.60
2019,10,27,05,54,-1.60
2019,10,27,05,55,-1.60
2019,10,27,05,56,-1.60
2019,10,27,05,57,-1.60
2019,10,27,05,58,-1.60
2019,10,27,05,59,-1.60
2019,10,27,06,00,-1.60
2019,10,27,06,01,-1.60
2019,10,27,06,02,-1.60
2019,10,27,06,03,-1.60
2019,10,27,06,04,-1.60
2019,10,27,06,05,-1.50
2019,10,27,06,06,-1.50
2019,10,27,06,07,-1.50
2019,10,27,06,08,-1.50
2019,10,27,06,09,-1.40
2019,10,27,06,10,-1.40
2019,10,27,06,11,-1.40
2019,10,27,06,12,-1.40
2019,10,27,06,13,-1.40
2019,10,27,06,14,-1.40
2019,10,27,06,15,-1.40
2019,10,27,06,16,-1.40
2019,10,27,06,17,-1.40
2019,10,27,06,18,-1.40
2019,10,27,06,19,-1.40
2019,10,27,06,20,-1.40
2019,10,27,06,21,-1.40
2019,10,27,06,22,-1.40
2019,10,27,06,23,-1.40
2019,10,27,08,54,-0.80
2019,10,27,08,55,-0.80
2019,10,27,08,56,-0.70
2019,10,27,08,57,-0.70
2019,10,27,08,58,-0.60
2019,10,27,08,59,-0.60
2019,10,27,09,00,-0.60
2019,10,27,09,01,-0.50
2019,10,27,09,02,-0.50
2019,10,27,09,03,-0.50
2019,10,27,09,04,-0.50
2019,10,27,09,05,-0.50
2019,10,27,09,06,-0.40
2019,10,27,09,07,-0.40
2019,10,27,09,08,-0.40
2019,10,27,09,09,-0.40
2019,10,27,09,10,-0.30
2019,10,27,09,11,-0.30
2019,10,27,09,12,-0.30
2019,10,27,09,13,-0.30
2019,10,27,09,14,-0.20
2019,10,27,09,15,-0.20
2019,10,27,09,16,-0.20
2019,10,27,09,17,-0.20
2019,10,27,09,18,-0.20
2019,10,27,09,19,-0.10
2019,10,27,09,20,-0.10
2019,10,27,09,21,-0.10
2019,10,27,09,22,-0.10
2019,10,27,09,23,-0.10
2019,10,27,09,24,-0.10
2019,10,27,09,25,0.00
2019,10,27,09,26,0.00
2019,10,27,09,27,0.00
2019,10,27,09,28,0.10
2019,10,27,09,29,0.10
2019,10,27,09,30,0.10
2019,10,27,09,31,0.20
2019,10,27,09,32,0.20
2019,10,27,09,33,0.30
2019,10,27,09,34,0.30
2019,10,27,09,35,0.40
2019,10,27,09,36,0.50
2019,10,27,09,37,0.60
2019,10,27,09,38,0.70
2019,10,27,09,39,0.80
2019,10,27,09,40,0.90
2019,10,27,09,41,0.90
2019,10,27,09,42,1.00
2019,10,27,09,43,1.30
2019,10,27,09,44,1.30
2019,10,27,09,45,1.40
2019,10,27,09,46,1.50
2019,10,27,09,47,1.50
2019,10,27,09,48,1.60
2019,10,27,09,49,1.60
2019,10,27,09,50,1.60
2019,10,27,09,51,1.70
2019,10,27,09,52,1.90
2019,10,27,09,53,2.00
2019,10,27,09,54,2.10
2019,10,27,09,55,2.20
2019,10,27,09,56,2.20
2019,10,27,09,57,2.20
2019,10,27,09,58,2.30
2019,10,27,09,59,2.30
2019,10,27,10,00,2.30
2019,10,27,10,01,2.40
2019,10,27,10,02,2.50
2019,10,27,10,03,2.50
2019,10,27,10,04,2.70
2019,10,27,10,05,2.80
2019,10,27,10,06,2.80
2019,10,27,10,07,3.00
2019,10,27,10,08,3.00
2019,10,27,10,09,3.10
2019,10,27,10,10,3.20
2019,10,27,10,11,3.30
2019,10,27,10,12,3.40
2019,10,27,10,13,3.50
2019,10,27,10,14,3.60
2019,10,27,10,15,3.70
2019,10,27,10,16,3.80
2019,10,27,10,17,3.80
2019,10,27,10,18,3.90
2019,10,27,10,19,4.00
2019,10,27,10,20,4.00
2019,10,27,10,21,4.10
2019,10,27,10,22,4.10
2019,10,27,10,23,4.10
2019,10,27,10,24,4.10
2019,10,27,10,25,4.20
2019,10,27,10,26,4.30
2019,10,27,10,27,4.30
2019,10,27,10,28,4.40
2019,10,27,10,29,4.60
2019,10,27,10,30,4.70
2019,10,27,10,31,4.80
2019,10,27,10,32,4.90
2019,10,27,10,33,5.00
2019,10,27,10,34,5.10
2019,10,27,10,35,5.30
2019,10,27,10,36,5.50
2019,10,27,10,37,5.60
2019,10,27,10,38,5.70
2019,10,27,10,39,5.70
2019,10,27,10,40,5.60
2019,10,27,10,41,5.60
2019,10,27,10,42,5.60
2019,10,27,10,43,5.60
2019,10,27,10,44,5.60
2019,10,27,10,45,5.50
2019,10,27,10,46,5.50
2019,10,27,10,47,5.60
2019,10,27,10,48,5.60
2019,10,27,10,49,5.70
2019,10,27,10,50,5.80
2019,10,27,10,51,5.90
2019,10,27,10,52,5.90
2019,10,27,10,53,5.90
2019,10,27,10,54,5.90
2019,10,27,10,55,6.00
2019,10,27,10,56,6.10
2019,10,27,10,57,6.20
2019,10,27,10,58,6.20
2019,10,27,10,59,6.30
2019,10,27,11,00,6.40
2019,10,27,11,01,6.40
2019,10,27,11,02,6.40
2019,10,27,11,03,6.40
2019,10,27,11,04,6.40
2019,10,27,11,05,6.40
2019,10,27,11,06,6.50
2019,10,27,11,07,6.50
2019,10,27,11,08,6.60
2019,10,27,11,09,6.60
2019,10,27,11,10,6.70
2019,10,27,11,11,6.80
2019,10,27,11,12,6.80
2019,10,27,11,13,6.90
2019,10,27,11,14,6.90
2019,10,27,11,15,7.00
2019,10,27,11,16,7.00
2019,10,27,11,17,7.10
2019,10,27,11,18,7.20
2019,10,27,11,19,7.20
2019,10,27,11,20,7.20
2019,10,27,11,21,7.30
2019,10,27,11,22,7.30
2019,10,27,11,23,7.40
2019,10,27,11,24,7.40
2019,10,27,11,25,7.50
2019,10,27,11,26,7.50
2019,10,27,11,27,7.60
2019,10,27,11,28,7.70
2019,10,27,11,29,7.70
2019,10,27,11,30,7.80
2019,10,27,11,31,7.80
2019,10,27,11,32,7.70
2019,10,27,11,33,7.70
2019,10,27,11,34,7.70
2019,10,27,11,35,7.70
2019,10,27,11,36,7.70
2019,10,27,11,37,7.80
2019,10,27,11,38,7.80
2019,10,27,11,39,7.80
2019,10,27,11,40,7.80
2019,10,27,11,41,7.80
2019,10,27,11,42,7.90
2019,10,27,11,43,8.00
2019,10,27,11,44,8.00
2019,10,27,11,45,8.10
2019,10,27,11,46,8.20
2019,10,27,11,47,8.20
2019,10,27,11,48,8.30
2019,10,27,11,49,8.40
2019,10,27,11,50,8.40
2019,10,27,11,51,8.40
2019,10,27,11,52,8.40
2019,10,27,11,53,8.50
2019,10,27,11,54,8.50
2019,10,27,11,55,8.60
2019,10,27,11,56,8.80
2019,10,27,11,57,8.90
2019,10,27,11,58,9.00
2019,10,27,11,59,9.10
2019,10,27,12,00,9.20
2019,10,27,12,01,9.30
2019,10,27,12,02,9.40
2019,10,27,12,03,9.50
2019,10,27,12,04,9.50
2019,10,27,12,05,9.60
2019,10,27,12,06,9.70
2019,10,27,12,07,9.70
2019,10,27,12,08,9.80
2019,10,27,12,09,9.80
2019,10,27,12,10,9.80
2019,10,27,12,11,9.80
2019,10,27,12,12,9.70
2019,10,27,12,13,9.70
2019,10,27,12,14,9.60
2019,10,27,12,15,9.60
2019,10,27,12,16,9.60
2019,10,27,12,17,9.70
2019,10,27,12,18,9.70
2019,10,27,12,19,9.70
2019,10,27,12,20,9.80
2019,10,27,12,21,9.70
2019,10,27,12,22,9.70
2019,10,27,12,23,9.70
2019,10,27,12,24,9.80
2019,10,27,12,25,9.80
2019,10,27,12,26,9.90
2019,10,27,12,27,10.00
2019,10,27,12,28,10.10
2019,10,27,12,29,10.20
2019,10,27,12,30,10.30
2019,10,27,12,31,10.30
2019,10,27,12,32,10.40
2019,10,27,12,33,10.40
2019,10,27,12,34,10.40
2019,10,27,12,35,10.30
2019,10,27,12,36,10.20
2019,10,27,12,37,10.20
2019,10,27,12,38,10.20
2019,10,27,12,39,10.20
2019,10,27,12,40,10.20
2019,10,27,12,41,10.20
2019,10,27,12,42,10.30
2019,10,27,12,43,10.40
2019,10,27,12,44,10.40
2019,10,27,12,45,10.40
2019,10,27,12,46,10.40
2019,10,27,12,47,10.40
2019,10,27,12,48,10.40
2019,10,27,12,49,10.30
2019,10,27,12,50,10.30
2019,10,27,12,51,10.30
2019,10,27,12,52,10.40
2019,10,27,12,53,10.40
2019,10,27,12,54,10.50
2019,10,27,12,55,10.60
2019,10,27,12,56,10.70
2019,10,27,12,57,10.90
2019,10,27,12,58,11.00
2019,10,27,12,59,11.10
2019,10,27,13,00,11.10
2019,10,27,13,01,11.20
2019,10,27,13,02,11.20
2019,10,27,13,03,11.30
2019,10,27,13,04,11.20
2019,10,27,13,05,11.20
2019,10,27,13,06,11.30
2019,10,27,13,07,11.40
2019,10,27,13,08,11.50
2019,10,27,13,09,11.60
2019,10,27,13,10,11.60
2019,10,27,13,11,11.70
2019,10,27,13,12,11.80
2019,10,27,13,13,11.80
2019,10,27,13,14,11.90
2019,10,27,13,15,12.00
2019,10,27,13,16,11.90
2019,10,27,13,17,11.70
2019,10,27,13,18,11.60
2019,10,27,13,19,11.50
2019,10,27,13,20,11.50
2019,10,27,13,21,11.40
2019,10,27,13,22,11.40
2019,10,27,13,23,11.40
2019,10,27,13,24,11.50
2019,10,27,13,25,11.40
2019,10,27,13,26,11.40
2019,10,27,13,27,11.30
2019,10,27,13,28,11.30
2019,10,27,13,29,11.30
2019,10,27,13,30,11.40
2019,10,27,13,31,11.40
2019,10,27,13,32,11.50
2019,10,27,13,33,11.60
2019,10,27,13,34,11.70
2019,10,27,13,35,11.80
2019,10,27,13,36,11.90
2019,10,27,13,37,11.90
2019,10,27,13,38,12.00
2019,10,27,13,39,12.10
2019,10,27,13,40,12.10
2019,10,27,13,41,12.10
2019,10,27,13,42,12.20
2019,10,27,13,43,12.20
2019,10,27,13,44,12.20
2019,10,27,13,45,12.20
2019,10,27,13,46,12.30
2019,10,27,13,47,12.40
2019,10,27,13,48,12.50
2019,10,27,13,49,12.50
2019,10,27,13,50,12.60
2019,10,27,13,51,12.60
2019,10,27,13,52,12.60
2019,10,27,13,53,12.70
2019,10,27,13,54,12.70
2019,10,27,13,55,12.80
2019,10,27,13,56,12.90
2019,10,27,13,57,12.90
2019,10,27,13,58,12.90
2019,10,27,13,59,12.90
2019,10,27,14,00,13.00
2019,10,27,14,01,13.10
2019,10,27,14,02,13.10
2019,10,27,14,03,13.10
2019,10,27,14,04,13.10
2019,10,27,14,05,13.10
2019,10,27,14,06,13.10
2019,10,27,14,07,13.10
2019,10,27,14,08,13.00
2019,10,27,14,09,13.00
2019,10,27,14,10,13.10
2019,10,27,14,11,13.10
2019,10,27,14,12,13.10
2019,10,27,14,13,13.00
2019,10,27,14,14,13.00
2019,10,27,14,15,12.90
2019,10,27,14,16,12.90
2019,10,27,14,17,12.80
2019,10,27,14,18,12.80
2019,10,27,14,19,12.70
2019,10,27,14,20,12.70
2019,10,27,14,21,12.60
2019,10,27,14,22,12.60
2019,10,27,14,23,12.50
2019,10,27,14,24,12.40
2019,10,27,14,25,12.20
2019,10,27,14,26,12.20
2019,10,27,14,27,12.20
2019,10,27,14,28,12.10
2019,10,27,14,29,12.10
2019,10,27,14,30,12.20
2019,10,27,14,31,12.20
2019,10,27,14,32,12.20
2019,10,27,14,33,12.30
2019,10,27,14,34,12.40
2019,10,27,14,35,12.60
2019,10,27,14,36,12.60
2019,10,27,14,37,12.70
2019,10,27,14,38,12.70
2019,10,27,14,39,12.70
2019,10,27,14,40,12.60
2019,10,27,14,41,12.60
2019,10,27,14,42,12.60
2019,10,27,14,43,12.60
2019,10,27,14,44,12.70
2019,10,27,14,45,12.70
2019,10,27,14,46,12.70
2019,10,27,14,47,12.80
2019,10,27,14,48,12.80
2019,10,27,14,49,12.80
2019,10,27,14,50,12.80
2019,10,27,14,51,12.80
2019,10,27,14,52,12.90
2019,10,27,14,53,12.90
2019,10,27,14,54,12.90
2019,10,27,14,55,12.90
2019,10,27,14,56,12.90
2019,10,27,14,57,12.80
2019,10,27,14,58,12.80
2019,10,27,14,59,12.70
2019,10,27,15,00,12.60
2019,10,27,15,01,12.50
2019,10,27,15,02,12.50
2019,10,27,15,03,12.40
2019,10,27,15,04,12.40
2019,10,27,15,05,12.40
2019,10,27,15,06,12.40
2019,10,27,15,07,12.50
2019,10,27,15,08,12.50
2019,10,27,15,09,12.50
2019,10,27,15,10,12.50
2019,10,27,15,11,12.50
2019,10,27,15,12,12.40
2019,10,27,15,13,12.40
2019,10,27,15,14,12.30
2019,10,27,15,15,12.30
2019,10,27,15,16,12.20
2019,10,27,15,17,12.20
2019,10,27,15,18,12.20
2019,10,27,15,19,12.20
2019,10,27,15,20,12.20
2019,10,27,15,21,12.10
2019,10,27,15,22,12.10
2019,10,27,15,23,12.10
2019,10,27,15,24,12.10
2019,10,27,15,25,12.20
2019,10,27,15,26,12.20
2019,10,27,15,27,12.20
2019,10,27,15,28,12.20
2019,10,27,15,29,12.30
2019,10,27,15,30,12.30
2019,10,27,15,31,12.30
2019,10,27,15,32,12.30
2019,10,27,15,33,12.20
2019,10,27,15,34,12.20
2019,10,27,15,35,12.20
2019,10,27,15,36,12.10
2019,10,27,15,37,12.10
2019,10,27,15,38,12.10
2019,10,27,15,39,12.00
2019,10,27,15,40,12.00
2019,10,27,15,41,12.00
2019,10,27,15,42,12.00
2019,10,27,15,43,12.00
2019,10,27,15,44,12.00
2019,10,27,15,45,12.00
2019,10,27,15,46,12.00
2019,10,27,15,47,12.00
2019,10,27,15,48,12.10
2019,10,27,15,49,12.10
2019,10,27,15,50,12.00
2019,10,27,15,51,12.10
2019,10,27,15,52,12.00
2019,10,27,15,53,11.90
2019,10,27,15,54,11.90
2019,10,27,15,55,11.90
2019,10,27,15,56,11.90
2019,10,27,15,57,11.90
2019,10,27,15,58,11.80
2019,10,27,15,59,11.80
2019,10,27,16,00,11.80
2019,10,27,16,01,11.80
2019,10,27,16,02,11.70
2019,10,27,16,03,11.70
2019,10,27,16,04,11.70
2019,10,27,16,05,11.70
2019,10,27,16,06,11.70
2019,10,27,16,07,11.60
2019,10,27,16,08,11.60
2019,10,27,16,09,11.60
2019,10,27,16,10,11.60
2019,10,27,16,11,11.60
2019,10,27,16,12,11.60
2019,10,27,16,13,11.50
2019,10,27,16,14,11.50
2019,10,27,16,15,11.50
2019,10,27,16,16,11.50
2019,10,27,16,17,11.40
2019,10,27,16,18,11.40
2019,10,27,16,19,11.40
2019,10,27,16,20,11.40
2019,10,27,16,21,11.40
2019,10,27,16,22,11.30
2019,10,27,16,23,11.30
2019,10,27,16,24,11.30
2019,10,27,16,25,11.30
2019,10,27,16,26,11.30
2019,10,27,16,27,11.30
2019,10,27,16,28,11.20
2019,10,27,16,29,11.20
2019,10,27,16,30,11.20
2019,10,27,16,31,11.20
2019,10,27,16,32,11.20
2019,10,27,16,33,11.20
2019,10,27,16,34,11.10
2019,10,27,16,35,11.10
2019,10,27,16,36,11.10
2019,10,27,16,37,11.10
2019,10,27,16,38,11.10
2019,10,27,16,39,11.10
2019,10,27,16,40,11.10
2019,10,27,16,41,11.00
2019,10,27,16,42,11.00
2019,10,27,16,43,10.90
2019,10,27,16,44,10.90
2019,10,27,16,45,10.90
2019,10,27,16,46,10.80
2019,10,27,16,47,10.80
2019,10,27,16,48,10.80
2019,10,27,16,49,10.80
2019,10,27,16,50,10.70
2019,10,27,16,51,10.70
2019,10,27,16,52,10.70
2019,10,27,16,53,10.70
2019,10,27,16,54,10.60
2019,10,27,16,55,10.60
2019,10,27,16,56,10.60
2019,10,27,16,57,10.60
2019,10,27,16,58,10.50
2019,10,27,16,59,10.50
2019,10,27,17,00,10.50
2019,10,27,17,01,10.40
2019,10,27,17,02,10.40
2019,10,27,17,03,10.40
2019,10,27,17,04,10.30
2019,10,27,17,05,10.30
2019,10,27,17,06,10.30
2019,10,27,17,07,10.20
2019,10,27,17,08,10.20
2019,10,27,17,09,10.20
2019,10,27,17,10,10.10
2019,10,27,17,11,10.10
2019,10,27,17,12,10.10
2019,10,27,17,13,10.00
2019,10,27,17,14,10.00
2019,10,27,17,15,9.90
2019,10,27,17,16,9.90
2019,10,27,17,17,9.90
2019,10,27,17,18,9.80
2019,10,27,17,19,9.80
2019,10,27,17,20,9.80
2019,10,27,17,21,9.70
2019,10,27,17,22,9.70
2019,10,27,17,23,9.60
2019,10,27,17,24,9.60
2019,10,27,17,25,9.50
2019,10,27,17,26,9.50
2019,10,27,17,27,9.40
2019,10,27,17,28,9.40
2019,10,27,17,29,9.30
2019,10,27,17,30,9.30
2019,10,27,17,31,9.20
2019,10,27,17,32,9.20
2019,10,27,17,33,9.20
2019,10,27,17,34,9.10
2019,10,27,17,35,9.10
2019,10,27,17,36,9.10
2019,10,27,17,37,9.00
2019,10,27,17,38,9.00
2019,10,27,17,39,8.90
2019,10,27,17,40,8.90
2019,10,27,17,41,8.90
2019,10,27,17,42,8.80
2019,10,27,17,43,8.80
2019,10,27,17,44,8.70
2019,10,27,17,45,8.70
2019,10,27,17,46,8.60
2019,10,27,17,47,8.50
2019,10,27,17,48,8.50
2019,10,27,17,49,8.40
2019,10,27,17,50,8.30
2019,10,27,17,51,8.30
2019,10,27,17,52,8.20
2019,10,27,17,53,8.10
2019,10,27,17,54,8.10
2019,10,27,17,55,8.00
2019,10,27,17,56,8.00
2019,10,27,17,57,7.90
2019,10,27,17,58,7.80
2019,10,27,17,59,7.80
2019,10,27,18,00,7.70
2019,10,27,18,01,7.60
2019,10,27,18,02,7.50
2019,10,27,18,03,7.50
2019,10,27,18,04,7.40
2019,10,27,18,05,7.30
2019,10,27,18,06,7.20
2019,10,27,18,07,7.20
2019,10,27,18,08,7.10
2019,10,27,18,09,7.10
2019,10,27,18,10,7.00
2019,10,27,18,11,6.90
2019,10,27,18,12,6.90
2019,10,27,18,13,6.80
2019,10,27,18,14,6.80
2019,10,27,18,15,6.70
2019,10,27,18,16,6.70
2019,10,27,18,17,6.60
2019,10,27,18,18,6.50
2019,10,27,18,19,6.40
2019,10,27,18,20,6.40
2019,10,27,18,21,6.30
2019,10,27,18,22,6.30
2019,10,27,18,23,6.20
2019,10,27,18,24,6.20
2019,10,27,18,25,6.10
2019,10,27,18,26,6.10
2019,10,27,18,27,6.00
2019,10,27,18,28,5.90
2019,10,27,18,29,5.90
2019,10,27,18,30,5.80
2019,10,27,18,31,5.80
2019,10,27,18,32,5.70
2019,10,27,18,33,5.70
2019,10,27,18,34,5.60
2019,10,27,18,35,5.60
2019,10,27,18,36,5.50
2019,10,27,18,37,5.40
2019,10,27,18,38,5.40
2019,10,27,18,39,5.30
2019,10,27,18,40,5.30
2019,10,27,18,41,5.20
2019,10,27,18,42,5.20
2019,10,27,18,43,5.10
2019,10,27,18,44,5.10
2019,10,27,18,45,5.00
2019,10,27,18,46,5.00
2019,10,27,18,47,4.90
2019,10,27,18,48,4.80
2019,10,27,18,49,4.80
2019,10,27,18,50,4.80
2019,10,27,18,51,4.70
2019,10,27,18,52,4.70
2019,10,27,18,53,4.60
2019,10,27,18,54,4.60
2019,10,27,18,55,4.60
2019,10,27,18,56,4.50
2019,10,27,18,57,4.50
2019,10,27,18,58,4.40
2019,10,27,18,59,4.40
2019,10,27,19,00,4.40
2019,10,27,19,01,4.30
2019,10,27,19,02,4.30
2019,10,27,19,03,4.30
2019,10,27,19,04,4.20
2019,10,27,19,05,4.20
2019,10,27,19,06,4.20
2019,10,27,19,07,4.10
2019,10,27,19,08,4.10
2019,10,27,19,09,4.10
2019,10,27,19,10,4.10
2019,10,27,19,11,4.00
2019,10,27,19,12,4.00
2019,10,27,19,13,3.90
2019,10,27,19,14,3.90
2019,10,27,19,15,3.90
2019,10,27,19,16,3.90
2019,10,27,19,17,3.80
2019,10,27,19,18,3.80
2019,10,27,19,19,3.80
2019,10,27,19,20,3.70
2019,10,27,19,21,3.70
2019,10,27,19,22,3.70
2019,10,27,19,23,3.70
2019,10,27,19,24,3.60
2019,10,27,19,25,3.60
2019,10,27,19,26,3.60
2019,10,27,19,27,3.50
2019,10,27,19,28,3.50
2019,10,27,19,29,3.50
2019,10,27,19,30,3.40
2019,10,27,19,31,3.40
2019,10,27,19,32,3.40
2019,10,27,19,33,3.30
2019,10,27,19,34,3.30
2019,10,27,19,35,3.30
2019,10,27,19,36,3.20
2019,10,27,19,37,3.20
2019,10,27,19,38,3.20
2019,10,27,19,39,3.20
2019,10,27,19,40,3.20
2019,10,27,19,41,3.10
2019,10,27,19,42,3.10
2019,10,27,19,43,3.10
2019,10,27,19,44,3.00
2019,10,27,19,45,3.00
2019,10,27,19,46,3.00
2019,10,27,19,47,2.90
2019,10,27,19,48,2.90
2019,10,27,19,49,2.90
2019,10,27,19,50,2.90
2019,10,27,19,51,2.80
2019,10,27,19,52,2.80
2019,10,27,19,53,2.80
2019,10,27,19,54,2.80
2019,10,27,19,55,2.80
2019,10,27,19,56,2.70
2019,10,27,19,57,2.70
2019,10,27,19,58,2.70
2019,10,27,19,59,2.70
2019,10,27,20,00,2.70
2019,10,27,20,01,2.60
2019,10,27,20,02,2.60
2019,10,27,20,03,2.60
2019,10,27,20,04,2.60
2019,10,27,20,05,2.60
2019,10,27,20,06,2.60
2019,10,27,20,07,2.50
2019,10,27,20,08,2.50
2019,10,27,20,09,2.50
2019,10,27,20,10,2.40